London,

11:52 AM EST on January 24, 2017 (GMT -0500)
London

Weather History for CYXU - November, 2011

Change the Weather History Date:

Thursday, November 3, 2011

  Actual Average Record
Temperature  
Mean Temperature 45 °F -  
Max Temperature 51 °F 44 °F 71 °F (2015)
Min Temperature 39 °F 30 °F 24 °F (2006)
Degree Days  
Heating Degree Days 20    
Moisture  
Dew Point 41 °F    
Average Humidity 80    
Maximum Humidity 100    
Minimum Humidity 71    
Precipitation  
Precipitation 0.00 in 0.12 in - ()
Sea Level Pressure  
Sea Level Pressure 30.04 in    
Wind  
Wind Speed 7 mph ()    
Max Wind Speed 13 mph    
Max Gust Speed 18 mph    
Visibility 12.1 miles    
Events      
Averages and records for this station are not official NWS values.
T = Trace of Precipitation, MM = Missing Value Source: Averaged Metar Reports

Daily Weather History Graph

Daily Weather History Graph

Search for Another Location

Airport or City:

Trip Planner

Search our weather history database for the weather conditions in past years. The results will help you decide how hot, cold, wet, or windy it might be!

Date:

Astronomy

Nov. 03, 2011 Rise Set
Actual Time 8:01 AM EDT 6:14 PM EDT
Civil Twilight 7:31 AM EDT 6:43 PM EDT
Nautical Twilight 6:58 AM EDT 7:17 PM EDT
Astronomical Twilight 6:24 AM EDT 7:50 PM EDT
Moon 2:46 PM EDT (11/3) 1:01 AM EDT (11/3)
Length of Visible Light 11h 12m
Length of Day
10h 12m
First Quarter, 60% of the Moon is Illuminated
Nov 3
First Quarter
Nov 10
Full
Nov 18
Last Quarter
Nov 25
New
Dec 2
First Quarter

Hourly Weather History & Observations

Time (EDT) Temp. Windchill Dew Point Humidity Pressure Visibility Wind Dir Wind Speed Gust Speed Precip Events Conditions
12:00 AM 51.8 °F - 42.8 °F 71% 30.05 in 15.0 mi South 9.2 mph - N/A   Partly Cloudy
1:00 AM 50.0 °F - 42.8 °F 76% 30.05 in 15.0 mi South 5.8 mph - N/A   Scattered Clouds
2:00 AM 48.2 °F - 42.8 °F 82% 30.04 in 15.0 mi SSW 5.8 mph - N/A   Mostly Cloudy
3:00 AM 50.0 °F - 42.8 °F 76% 30.01 in 15.0 mi SSW 5.8 mph - N/A   Overcast
4:00 AM 51.8 °F - 42.8 °F 71% 30.00 in 15.0 mi SSW 10.4 mph - N/A   Mostly Cloudy
5:00 AM 50.0 °F - 42.8 °F 76% 30.01 in 15.0 mi WSW 4.6 mph - N/A   Mostly Cloudy
6:00 AM 50.0 °F - 41.0 °F 71% 30.01 in 15.0 mi West 4.6 mph - N/A   Mostly Cloudy
7:00 AM 48.2 °F - 41.0 °F 76% 30.01 in 15.0 mi WSW 5.8 mph - N/A   Mostly Cloudy
8:00 AM 46.4 °F 43.5 °F 42.8 °F 87% 30.02 in 10.0 mi WNW 5.8 mph - N/A   Mostly Cloudy
9:00 AM 46.4 °F 42.9 °F 44.6 °F 93% 30.01 in 6.0 mi NNW 6.9 mph - N/A   Mostly Cloudy
10:00 AM 46.4 °F 42.9 °F 46.4 °F 100% 30.03 in 5.0 mi North 6.9 mph - N/A   Overcast
10:19 AM 48.2 °F - - N/A% - 3.0 mi North 9.2 mph - N/A   Overcast
11:00 AM 50.0 °F - 46.4 °F 87% 30.06 in 5.0 mi North 9.2 mph - N/A   Overcast
11:30 AM 50.0 °F - - N/A% - 4.0 mi North 9.2 mph 17.3 mph N/A   Overcast
11:40 AM 50.0 °F - - N/A% - 2.5 mi North 11.5 mph 17.3 mph N/A   Overcast
12:40 PM 50.0 °F - - N/A% - 8.0 mi North 11.5 mph - N/A   Overcast
1:00 PM 50.0 °F - 44.6 °F 82% 30.04 in 12.0 mi North 12.7 mph - N/A   Overcast
2:00 PM 50.0 °F - 42.8 °F 76% 30.04 in 15.0 mi North 12.7 mph 18.4 mph N/A   Overcast
3:00 PM 50.0 °F - 41.0 °F 71% 30.03 in 15.0 mi North 12.7 mph - N/A   Overcast
4:00 PM 48.2 °F - 41.0 °F 76% 30.01 in 15.0 mi NE 9.2 mph - N/A   Overcast
5:00 PM 48.2 °F - 41.0 °F 76% 30.04 in 15.0 mi NNE 9.2 mph - N/A   Overcast
6:00 PM 46.4 °F 41.9 °F 39.2 °F 76% 30.04 in 15.0 mi NNE 9.2 mph - N/A   Overcast
7:00 PM 46.4 °F 42.4 °F 39.2 °F 76% 30.07 in 15.0 mi North 8.1 mph - N/A   Overcast
8:00 PM 44.6 °F 38.8 °F 39.2 °F 81% 30.09 in 15.0 mi North 11.5 mph - N/A   Overcast
9:00 PM 42.8 °F 38.6 °F 35.6 °F 76% 30.11 in 15.0 mi NNE 6.9 mph - N/A   Mostly Cloudy
10:00 PM 39.2 °F 32.0 °F 35.6 °F 87% 30.12 in 15.0 mi North 11.5 mph - N/A   Mostly Cloudy
11:00 PM 39.2 °F 34.2 °F 35.6 °F 87% 30.14 in 15.0 mi NNE 6.9 mph - N/A   Mostly Cloudy